{"data":{"norad_id":58966,"epoch":"2026-05-25T03:30:59.506848Z","epoch_age_seconds":59575,"freshness":"FRESH","line1":"1 58966U 24031B   26145.14652207 -.00000118  00000+0  81415-5 0  9993","line2":"2 58966  53.1614 301.2349 0001155 104.3692 255.7437 15.30193550128247","mean_motion":15.3019355,"eccentricity":0.0001155,"inclination_deg":53.1614,"raan_deg":301.2349,"arg_perigee_deg":104.3692,"mean_anomaly_deg":255.7437,"bstar":8.1415e-6,"rev_number":12824,"period_min":94.105742374878,"perigee_km":474.44276363596,"apogee_km":476.02589241274,"semimajor_km":6853.3713280244,"source":"CELESTRAK","updated_at":"2026-05-25T13:38:18.793004Z"}}